Location: Laterina
(43.5167°N, 11.7167°E)
Time: 15:01:20
(UTC+00:00)

Lacrosse 5 rocket - Pass Details

Date: 24 September 2020
Orbit: 460 x 636 km, 57.0° (Epoch: 25 October)

Event Time Altitude Azimuth Distance (km) Brightness Sun altitude
Rises 17:34:05 0° 297° (WNW) 2,754 6.4 -5.9°
Reaches altitude 10° 17:37:16 10° 323° (NW) 1,900 4.7 -6.4°
Maximum altitude 17:39:37 14° 356° (N) 1,670 3.9 -6.9°
Drops below altitude 10° 17:42:01 10° 29° (NNE) 1,954 3.9 -7.3°
Enters shadow 17:45:01 - 52° (NE) 2,777 4.5 -7.8°
